Location: Unspecified
(0.0000°N, 0.0000°E)
Time: 02:05:36
(UTC+00:00)

Kosmos-2154 - Visible Passes

Search period start: 16 May 2026 00:00
Search period end: 26 May 2026 00:00
Orbit: 969 x 1004 km, 82.9° (Epoch: 15 May)

Date Brightness Start Highest point End Pass type
(mag) Time Alt. Az. Time Alt. Az. Time Alt. Az.
16 May 7.4 04:37:01 10° NNE 04:42:54 40° E 04:48:45 10° SSE visible
17 May 6.0 05:05:15 10° N 05:11:37 87° W 05:17:57 10° S visible
17 May 9.0 18:15:07 10° WSW 18:18:33 15° W 18:22:00 10° NW visible
18 May 8.6 03:51:01 10° NE 03:55:01 17° E 03:58:59 10° SE visible
19 May 7.3 04:17:48 10° NNE 04:23:43 42° E 04:29:36 10° SSE visible
20 May 6.0 04:46:05 10° N 04:52:26 84° W 04:58:45 10° S visible
21 May 8.5 03:31:42 10° NE 03:35:50 18° E 03:39:55 10° SE visible
21 May 6.6 05:15:26 10° NNW 05:21:08 36° W 05:26:49 10° SSW visible
22 May 7.1 03:58:35 10° NNE 04:04:33 43° E 04:10:27 10° SSE visible
23 May 5.9 04:26:55 10° N 04:33:15 81° W 04:39:33 10° S visible
24 May 8.3 03:12:25 10° NE 03:16:38 19° E 03:20:51 10° SE visible
24 May 6.6 04:56:20 10° NNW 05:01:57 34° W 05:07:34 10° SSW visible
25 May 7.0 03:39:23 10° NNE 03:45:22 45° E 03:51:18 10° SSE visible
25 May 7.5 05:27:36 10° WNW 05:30:39 14° W 05:33:43 10° WSW visible
